Kalamazoo, MI

6:26 PM EDT on April 28, 2017 (GMT -0400)
Kalamazoo-Battle Creek International

Weather History for KAZO - December, 2008

Change the Weather History Date:

Monday, December 22, 2008

  Actual Average Record
Temperature  
Mean Temperature 10 °F 27 °F  
Max Temperature 17 °F 33 °F 56 °F (1949)
Min Temperature 3 °F 21 °F -8 °F (2000)
Degree Days  
Heating Degree Days 55 38  
Month to date heating degree days 771  
Since 1 July heating degree days 2098  
Cooling Degree Days 0 0  
Month to date cooling degree days 0  
Year to date cooling degree days 675  
Moisture  
Dew Point 4 °F    
Average Humidity 78    
Maximum Humidity 85    
Minimum Humidity 67    
Precipitation  
Precipitation 0.00 in 0.06 in 1.24 in (1949)
Month to date precipitation 1.50  
Year to date precipitation 35.26  
Snow  
Snow 0.00 in - - ()
Snow Depth 10.00 in    
Sea Level Pressure  
Sea Level Pressure 30.29 in    
Wind  
Wind Speed 11 mph (SW)    
Max Wind Speed 16 mph    
Max Gust Speed -    
Visibility 3 miles    
Events Snow    
T = Trace of Precipitation, MM = Missing Value Source: NWS Daily Summary

Daily Weather History Graph

Daily Weather History Graph

Search for Another Location

Airport or City:

Trip Planner

Search our weather history database for the weather conditions in past years. The results will help you decide how hot, cold, wet, or windy it might be!

Date:

Astronomy

Dec. 22, 2008 Rise Set
Actual Time 8:08 AM EST 5:13 PM EST
Civil Twilight 7:36 AM EST 5:45 PM EST
Nautical Twilight 7:01 AM EST 6:21 PM EST
Astronomical Twilight 6:26 AM EST 6:55 PM EST
Moon 3:48 AM EST (12/22) 1:41 PM EST (12/22)
Length of Visible Light 10h 09m
Length of Day
9h 05m
Waning Crescent, 20% of the Moon is Illuminated
Dec 22
Waning Crescent
Dec 27
New
Jan 4
First Quarter
Jan 10
Full
Jan 17
Last Quarter

Hourly Weather History & Observations

Time (EST) Temp. Windchill Dew Point Humidity Pressure Visibility Wind Dir Wind Speed Gust Speed Precip Events Conditions
12:00 AM 12.2 °F -3.1 °F 6.8 °F 79% 30.03 in 0.8 mi WSW 13.8 mph - 0.00 in Snow Light Snow
12:08 AM 12.2 °F -2.5 °F 6.8 °F 79% 30.03 in 1.0 mi SW 12.7 mph - 0.00 in Snow Light Snow
12:53 AM 7.0 °F -9.8 °F 1.9 °F 80% 30.11 in 1.0 mi SSW 13.8 mph - 0.00 in Snow Light Snow
1:07 AM 6.8 °F -9.3 °F 1.4 °F 79% 30.05 in 1.0 mi SW 12.7 mph - 0.00 in Snow Light Snow
1:39 AM 6.8 °F -10.0 °F 1.4 °F 79% 30.06 in 0.8 mi SW 13.8 mph - 0.00 in Snow Light Snow
1:53 AM 6.1 °F -9.5 °F 1.0 °F 80% 30.13 in 1.0 mi SW 11.5 mph - 0.00 in Snow Light Snow
2:00 AM 6.8 °F -8.6 °F 1.4 °F 79% 30.07 in 0.8 mi SW 11.5 mph - 0.00 in Snow Light Snow
2:26 AM 6.8 °F -6.9 °F 3.2 °F 85% 30.08 in 0.8 mi SW 9.2 mph - 0.00 in Snow Light Snow
2:35 AM 6.8 °F -6.9 °F 1.4 °F 79% 30.09 in 1.0 mi SW 9.2 mph - 0.00 in Snow Light Snow
2:53 AM 8.1 °F -4.3 °F 3.0 °F 80% 30.17 in 1.5 mi SW 8.1 mph - 0.00 in Snow Light Snow
3:23 AM 10.4 °F -1.5 °F 5.0 °F 79% 30.12 in 1.0 mi SW 8.1 mph - 0.00 in Snow Light Snow
3:31 AM 10.4 °F -1.5 °F 5.0 °F 79% 30.12 in 1.0 mi SW 8.1 mph - 0.00 in Snow Light Snow
3:51 AM 10.4 °F -1.5 °F 6.8 °F 85% 30.13 in 1.0 mi SW 8.1 mph - 0.00 in Snow Light Snow
3:53 AM 10.9 °F -0.8 °F 6.1 °F 81% 30.19 in 1.2 mi SW 8.1 mph - 0.00 in Snow Light Snow
4:11 AM 12.2 °F 0.7 °F 8.6 °F 85% 30.13 in 1.8 mi WSW 8.1 mph - 0.00 in Snow Light Snow
4:35 AM 15.8 °F 6.1 °F 10.4 °F 79% 30.14 in 2.0 mi WSW 6.9 mph - 0.00 in Snow Light Snow
4:53 AM 17.1 °F 5.8 °F 12.0 °F 81% 30.21 in 2.5 mi West 9.2 mph - 0.00 in Snow Light Snow
5:23 AM 17.6 °F 8.2 °F 12.2 °F 79% 30.16 in 1.2 mi WSW 6.9 mph - 0.00 in Snow Light Snow
5:53 AM 16.0 °F 5.3 °F 12.0 °F 84% 30.23 in 1.2 mi WSW 8.1 mph - 0.00 in Snow Light Snow
6:27 AM 15.8 °F 2.7 °F 10.4 °F 79% 30.19 in 0.8 mi WSW 11.5 mph - 0.00 in Snow Light Snow
7:53 AM 16.0 °F 2.9 °F 10.9 °F 81% 30.30 in 1.2 mi West 11.5 mph - 0.00 in Snow Light Snow
8:24 AM 15.8 °F 2.1 °F 10.4 °F 79% 30.25 in 0.8 mi WSW 12.7 mph - 0.00 in Snow Light Snow
8:53 AM 16.0 °F 2.9 °F 10.9 °F 81% 30.33 in 0.8 mi West 11.5 mph - 0.00 in Snow Light Snow
9:31 AM 12.2 °F -1.8 °F 6.8 °F 79% 30.29 in 0.8 mi SSW 11.5 mph - 0.00 in Snow Light Snow
9:53 AM 12.0 °F -2.7 °F 7.0 °F 80% 30.36 in 0.8 mi SW 12.7 mph - 0.00 in Snow Light Snow
10:05 AM 10.4 °F -4.8 °F 6.8 °F 85% 30.31 in 1.0 mi SW 12.7 mph - 0.00 in Snow Light Snow
10:29 AM 8.6 °F -6.3 °F 3.2 °F 79% 30.32 in 1.0 mi SW 11.5 mph - 0.00 in Snow Light Snow
10:50 AM 10.4 °F -2.4 °F 5.0 °F 79% 30.33 in 2.0 mi WSW 9.2 mph - 0.00 in Snow Light Snow
10:53 AM 10.9 °F -1.8 °F 5.0 °F 77% 30.40 in 2.0 mi SW 9.2 mph - 0.00 in Snow Light Snow
11:18 AM 12.2 °F -4.3 °F 5.0 °F 73% 30.34 in 6.0 mi WSW 16.1 mph - 0.00 in Snow Light Snow
11:26 AM 10.4 °F -5.4 °F 5.0 °F 79% 30.34 in 5.0 mi WSW 13.8 mph - 0.00 in Snow Light Snow
11:46 AM 12.2 °F -1.8 °F 5.0 °F 73% 30.34 in 1.0 mi WSW 11.5 mph - 0.00 in Snow Light Snow
11:53 AM 10.9 °F -2.6 °F 5.0 °F 77% 30.40 in 1.8 mi SW 10.4 mph - 0.00 in Snow Light Snow
12:35 PM 10.4 °F -3.3 °F 3.2 °F 73% 30.35 in 2.5 mi WSW 10.4 mph - 0.00 in Snow Light Snow
12:53 PM 10.9 °F -4.7 °F 3.9 °F 73% 30.41 in 3.0 mi SW 13.8 mph - 0.00 in Snow Light Snow
1:53 PM 10.0 °F -5.2 °F 1.9 °F 70% 30.43 in 3.0 mi SW 12.7 mph - 0.00 in Snow Light Snow
2:53 PM 9.0 °F -5.9 °F 1.0 °F 70% 30.44 in 8.0 mi SW 11.5 mph - 0.00 in   Mostly Cloudy
3:53 PM 8.1 °F -7.7 °F -0.0 °F 70% 30.46 in 3.0 mi SW 12.7 mph - 0.00 in   Haze
4:53 PM 7.0 °F -7.5 °F -2.0 °F 67% 30.47 in 10.0 mi SW 10.4 mph - N/A   Clear
5:53 PM 3.9 °F -9.4 °F -2.9 °F 73% 30.47 in 10.0 mi SSW 8.1 mph - N/A   Clear
6:36 PM 5.0 °F -10.8 °F -2.2 °F 72% 30.43 in 10.0 mi SSW 11.5 mph - N/A   Mostly Cloudy
6:53 PM 6.1 °F -10.9 °F -0.9 °F 73% 30.49 in 4.0 mi SSW 13.8 mph - 0.00 in Snow Light Snow
7:49 PM 5.0 °F -9.1 °F -2.2 °F 72% 30.43 in 7.0 mi SSW 9.2 mph - 0.00 in Snow Light Snow
7:53 PM 6.1 °F -8.7 °F -0.9 °F 73% 30.49 in 6.0 mi SSW 10.4 mph - 0.00 in Snow Light Snow
8:15 PM 5.0 °F -10.8 °F -0.4 °F 78% 30.43 in 4.0 mi SSW 11.5 mph - 0.00 in Snow Light Snow
8:53 PM 6.1 °F -10.2 °F -0.9 °F 73% 30.50 in 5.0 mi SSW 12.7 mph - 0.00 in Snow Light Snow
9:53 PM 5.0 °F -13.0 °F -0.9 °F 76% 30.52 in 8.0 mi SSW 15.0 mph - 0.00 in Snow Light Snow
10:53 PM 3.9 °F -10.4 °F -0.9 °F 80% 30.53 in 6.0 mi SSW 9.2 mph - 0.00 in Snow Light Snow
11:40 PM 3.2 °F -7.8 °F -2.2 °F 78% 30.45 in 9.0 mi South 5.8 mph - 0.00 in   Scattered Clouds
11:53 PM 3.0 °F -10.5 °F -2.0 °F 80% 30.52 in 9.0 mi South 8.1 mph - 0.00 in   Clear